Home   Weather   Resolute Bay   Past weeks

Flag for Canada Past Weather in Resolute Bay, Nunavut, Canada — Yesterday and Last 2 Weeks

Now
-6 °F

Ice fog.


Feels Like: -23 °F
Forecast: -6 / 13 °F
Wind: 10 mph from Northwest

Location: Resolute

Current Time: Apr 30, 2017 at 4:12:51 am

Latest Report: Apr 30, 2017 at 3:00 am


Visibility: 3 mi

Pressure: 30.14 "Hg

Humidity: 77%

Dew Point: -11 °F

Location of Resolute BayLocation

Past Weather in Resolute Bay — Graph

°F

Resolute Bay Temperature Yesterday

Maximum temperature yesterday: 0 °F (at 2:00 am)
Minimum temperature yesterday: -6 °F (at 9:00 am)
Average temperature yesterday: -3 °F

High & Low Weather Summary for the Past Weeks

 TemperatureHumidityPressure
High7 °F (Apr 22, 6:00 pm)84% (Apr 20, 10:00 pm)30.51 "Hg (Apr 20, 10:00 pm)
Low-17 °F (Apr 28, 12:00 am)55% (Apr 15, 3:00 pm)29.74 "Hg (Apr 18, 9:00 am)
Average-5 °F73%30.19 "Hg
* Reported Apr 15 3:00 am — Apr 30 3:00 am, Resolute Bay, Weather by CustomWeather, © 2017

Note: Actual official high and low records may vary slightly from our data, if they occured in-between our weather recording intervals... More about our weather records

Advertising

Resolute Bay Weather History for the Previous 24 Hours

Scroll right to see more
 ConditionsComfort  
Time TempWeatherWind HumidityBarometerVisibility
3:00 am
Sun, Apr 30
-6 °FIce fog.10 mph77%30.14 "Hg3 mi
2:00 am-6 °FIce fog.15 mph77%30.14 "Hg2 mi
1:00 am-8 °FScattered clouds.14 mph77%30.14 "Hg15 mi
12:00 am-6 °FScattered clouds.8 mph77%30.15 "Hg15 mi
11:00 pm
Sat, Apr 29
-2 °FPassing clouds.14 mph84%30.15 "Hg15 mi
10:00 pm-2 °FPassing clouds.20 mph77%30.16 "Hg15 mi
9:00 pm-4 °FPassing clouds.22 mph84%30.16 "Hg15 mi
8:00 pm-4 °FSunny.20 mph84%30.17 "Hg15 mi
7:00 pm-2 °FSunny.18 mph77%30.17 "Hg15 mi
6:00 pm-2 °FSunny.16 mph84%30.18 "Hg15 mi
5:00 pm-2 °FPassing clouds.9 mph77%30.18 "Hg15 mi
4:00 pm-2 °FSunny.14 mph77%30.18 "Hg15 mi
3:00 pm-2 °FPassing clouds.14 mph77%30.19 "Hg15 mi
2:00 pm-2 °FPassing clouds.12 mph77%30.19 "Hg15 mi
1:00 pm-4 °FPassing clouds.10 mph77%30.19 "Hg15 mi
12:00 pm-4 °FSunny.18 mph77%30.18 "Hg15 mi
11:00 am-6 °FPassing clouds.16 mph77%30.19 "Hg15 mi
10:00 am-6 °FPassing clouds.8 mph77%30.20 "Hg15 mi
9:00 am-6 °FPassing clouds.5 mph70%30.20 "Hg15 mi
8:00 am-4 °FPassing clouds.7 mph77%30.20 "Hg15 mi
7:00 am-2 °FLight snow. Partly sunny.10 mph77%30.20 "Hg15 mi
6:11 am-2 °FLight snow. Low clouds.10 mph84%30.20 "Hg15 mi
5:26 am0 °FLight snow. Overcast.10 mph78%30.20 "Hg15 mi
5:00 am0 °FLight snow. More clouds than sun.9 mph78%30.20 "Hg15 mi
4:00 am0 °FLight snow. Overcast.8 mph78%30.19 "Hg15 mi
Weather by CustomWeather, © 2017

See weather overviewHow to use our weather pages